La Junta, CO

7:43 PM MDT on April 25, 2017 (GMT -0600)
La Junta Municipal

Weather History for KLHX - March, 2014

Change the Weather History Date:

Wednesday, March 26, 2014

  Actual Average Record
Temperature  
Mean Temperature 58 °F 47 °F  
Max Temperature 76 °F 63 °F 90 °F (1971)
Min Temperature 39 °F 32 °F 4 °F (1955)
Degree Days  
Heating Degree Days 7 18  
Month to date heating degree days 591 563  
Since 1 July heating degree days 4667 4664  
Cooling Degree Days 0 0  
Month to date cooling degree days 0 0  
Year to date cooling degree days 0 0  
Growing Degree Days 7 (Base 50)    
Moisture  
Dew Point 23 °F    
Average Humidity 37    
Maximum Humidity 64    
Minimum Humidity 10    
Precipitation  
Precipitation 0.00 in 0.03 in 0.36 in (1950)
Month to date precipitation 0.39 0.64  
Year to date precipitation 0.69  
Sea Level Pressure  
Sea Level Pressure 29.43 in    
Wind  
Wind Speed 17 mph (WSW)    
Max Wind Speed 35 mph    
Max Gust Speed 40 mph    
Visibility 6 miles    
Events      
T = Trace of Precipitation, MM = Missing Value Source: NWS Daily Summary

Daily Weather History Graph

Daily Weather History Graph

Search for Another Location

Airport or City:

Trip Planner

Search our weather history database for the weather conditions in past years. The results will help you decide how hot, cold, wet, or windy it might be!

Date:

Astronomy

Mar. 26, 2014 Rise Set
Actual Time 6:48 AM MDT 7:11 PM MDT
Civil Twilight 6:21 AM MDT 7:38 PM MDT
Nautical Twilight 5:50 AM MDT 8:09 PM MDT
Astronomical Twilight 5:19 AM MDT 8:40 PM MDT
Moon 3:54 AM MDT 2:56 PM MDT
Length of Visible Light 13h 16m
Length of Day
12h 23m
Waning Crescent, 21% of the Moon is Illuminated
Mar 26
Waning Crescent
Mar 30
New
Apr 7
First Quarter
Apr 15
Full
Apr 22
Last Quarter

Hourly Weather History & Observations

Time (MDT) Temp. Windchill Dew Point Humidity Pressure Visibility Wind Dir Wind Speed Gust Speed Precip Events Conditions
12:53 AM 48.0 °F - 26.1 °F 42% 29.71 in 10.0 mi SW 17.3 mph - N/A   Clear
1:53 AM 45.0 °F 37.9 °F 26.1 °F 48% 29.70 in 10.0 mi SW 16.1 mph - N/A   Clear
2:53 AM 44.1 °F 37.7 °F 28.9 °F 55% 29.67 in 10.0 mi SW 12.7 mph - N/A   Clear
3:53 AM 46.9 °F - 30.9 °F 54% 29.61 in 10.0 mi SW 18.4 mph - N/A   Clear
4:53 AM 39.9 °F 31.1 °F 28.0 °F 63% 29.59 in 10.0 mi WSW 17.3 mph - N/A   Clear
5:53 AM 45.0 °F 37.4 °F 30.0 °F 56% 29.57 in 10.0 mi SW 18.4 mph - N/A   Clear
6:53 AM 46.0 °F 38.5 °F 30.9 °F 56% 29.57 in 10.0 mi SW 19.6 mph - N/A   Clear
7:53 AM 43.0 °F 41.3 °F 30.0 °F 60% 29.59 in 10.0 mi NNE 3.5 mph - N/A   Clear
8:53 AM 50.0 °F - 30.9 °F 48% 29.56 in 10.0 mi SW 12.7 mph - N/A   Clear
9:53 AM 57.0 °F - 32.0 °F 39% 29.54 in 10.0 mi SW 10.4 mph - N/A   Clear
10:53 AM 63.0 °F - 28.0 °F 27% 29.50 in 10.0 mi West 11.5 mph - N/A   Clear
11:53 AM 66.9 °F - 25.0 °F 21% 29.45 in 10.0 mi SW 6.9 mph - N/A   Clear
12:53 PM 72.0 °F - 21.9 °F 15% 29.40 in 9.0 mi West 16.1 mph 23.0 mph N/A   Clear
1:53 PM 73.9 °F - 21.0 °F 14% 29.35 in 10.0 mi SW 15.0 mph 20.7 mph N/A   Clear
2:33 PM 73.0 °F - 18.0 °F 12% 29.45 in 10.0 mi West 13.8 mph 23.0 mph N/A   Partly Cloudy
2:53 PM 75.0 °F - 16.0 °F 11% 29.31 in 2.5 mi SW 19.6 mph 33.4 mph N/A   Haze
3:05 PM 73.9 °F - 16.0 °F 11% 29.43 in 9.0 mi WSW 19.6 mph 27.6 mph N/A   Partly Cloudy
3:15 PM 75.0 °F - 18.0 °F 12% 29.42 in 3.0 mi West 23.0 mph 29.9 mph N/A   Haze
3:35 PM 75.0 °F - 17.1 °F 11% 29.42 in 1.8 mi West 25.3 mph 32.2 mph N/A   Haze
3:53 PM 73.9 °F - 19.0 °F 13% 29.29 in 1.0 mi WSW 29.9 mph 35.7 mph N/A   Haze
4:08 PM 73.9 °F - 19.0 °F 13% 29.41 in 2.0 mi WSW 21.9 mph 33.4 mph N/A   Haze
4:12 PM 73.9 °F - 18.0 °F 12% 29.41 in 1.0 mi West 31.1 mph 38.0 mph N/A   Haze
4:18 PM 73.9 °F - 16.0 °F 11% 29.41 in 0.8 mi West 31.1 mph 38.0 mph N/A   Haze
4:23 PM 73.0 °F - 16.0 °F 11% 29.40 in 1.2 mi WSW 24.2 mph 36.8 mph N/A   Haze
4:29 PM 73.9 °F - 17.1 °F 12% 29.40 in 4.0 mi WSW 24.2 mph 31.1 mph N/A   Haze
4:40 PM 73.0 °F - 14.0 °F 11% 29.40 in 2.0 mi WSW 33.4 mph 39.1 mph N/A   Haze
4:53 PM 73.0 °F - 16.0 °F 11% 29.28 in 2.5 mi WSW 27.6 mph 33.4 mph N/A   Haze
4:56 PM 73.9 °F - 18.0 °F 12% 29.40 in 1.0 mi West 29.9 mph 39.1 mph N/A   Haze
5:05 PM 72.0 °F - 19.0 °F 13% 29.40 in 0.5 mi West 32.2 mph 40.3 mph N/A   Haze
5:32 PM 71.1 °F - 21.9 °F 16% 29.39 in 1.2 mi West 32.2 mph 36.8 mph N/A   Haze
5:43 PM 71.1 °F - 21.0 °F 15% 29.40 in 3.0 mi WSW 25.3 mph - N/A   Haze
5:53 PM 71.1 °F - 18.0 °F 13% 29.28 in 4.0 mi West 28.8 mph 34.5 mph N/A   Haze
6:53 PM 64.9 °F - 17.1 °F 16% 29.27 in 10.0 mi WSW 19.6 mph - N/A   Clear
7:53 PM 62.1 °F - 21.9 °F 21% 29.29 in 10.0 mi West 18.4 mph - N/A   Clear
8:53 PM 60.1 °F - 26.1 °F 27% 29.31 in 10.0 mi WSW 19.6 mph - N/A   Clear
9:46 PM 57.9 °F - 28.0 °F 32% 29.42 in 3.0 mi West 16.1 mph - N/A   Haze
9:53 PM 57.0 °F - 28.0 °F 33% 29.30 in 3.0 mi WSW 12.7 mph - N/A   Haze
10:53 PM 54.0 °F - 28.9 °F 38% 29.29 in 10.0 mi WSW 13.8 mph - N/A   Overcast
11:53 PM 57.0 °F - 24.1 °F 28% 29.27 in 10.0 mi WSW 23.0 mph - N/A   Mostly Cloudy